Location: ??
(35.5052°N, 139.7262°E)
Time: 01:26:28
(UTC+00:00)

DELTA 2 R/B (1) - Pass Details

Date: 20 June 2021
Orbit: 790 x 803 km, 39.6° (Epoch: 05 August)

Event Time Altitude Azimuth Distance (km) Brightness Sun altitude
Rises 18:47:59 0° 289° (WNW) 3,278 6.4 -7.3°
Reaches altitude 10° 18:50:28 10° 289° (WNW) 2,349 5.7 -6.9°
Maximum altitude 18:56:02 90° 39° (NE) 794 3.6 -6.0°
Drops below altitude 10° 19:01:35 10° 111° (ESE) 2,352 6.6 -5.1°
Sets 19:04:04 0° 111° (ESE) 3,282 7.3 -4.6°
